Location: Cheching
(60.0667°N, 164.2167°W)
Time: 10:52:16
(UTC+00:00)

NOAA 19 - Pass Details

Date: 26 January 2021
Orbit: 840 x 862 km, 99.2° (Epoch: 26 February)

Event Time Altitude Azimuth Distance (km) Brightness Sun altitude
Rises 16:22:34 0° 23° (NNE) 3,428 8.7 -21.8°
Reaches altitude 10° 16:25:48 10° 42° (NE) 2,483 8.2 -21.4°
Maximum altitude 16:29:25 18° 84° (E) 1,986 8.1 -21.0°
Drops below altitude 10° 16:33:01 10° 125° (SE) 2,465 8.4 -20.5°
Sets 16:36:11 0° 145° (SE) 3,392 8.9 -20.1°
